Погода Огурцово

Погода Огурцово : погода сейчас, прогноз погоды и архив. Всё, что Вы хотите узнать о погоде Огурцово!

Хотите узнать прогноз погоды Огурцово? Тогда Вам сюда: Погода Огурцово

Поиск расширенной информации на нашем сайте:

Другие новости

Новости СМИ2

Главная страница сайта

Новости сайта

03.07.2017

Напоминаем, что на нашем специализированном сайте Метеоцентр.Азия вы можете получить высокодетализированные автоматические прогнозы погоды по пунктам России, СНГ и мира в авиационном формате (включающие направление и скорость ветра, видимость, явления погоды, количество и форму облачности, нижнюю и верхнюю границу облачности).


Погода Огурцово - сегодня

Время (UTC), дата Ветер
(°,м/с) 
Видим.   Явления Облачность Т
(°С)
Тd
(°С)
f(%) Тe
(°С)
Pmin
(гПа)
dP
(гПа)
Po
(мм)
O2
(г/м3)
Тmin Tmax R s Состояние
почвы
00 16.04.18 180 (Ю) 22000 м  слаб. ливневой снег  10/10 600 м кучево-дожд. 
[Cb cap]
+2.2 -2.3 72 +1  1007.2  -1.4  743  297  +2.2    0.0  мокрый или
старый снег
10-40% 
12 16.04.18 210 (ЮЗ) 5-11{13}  20000 м    10/10 600 м кучево-дожд. 
[Cb cap]
+10 -3.9 37 +9  1001.7  -0.6  739  288    +11.6  0.0     
00 17.04.18 220 (ЮЗ) 19000 м    8/4 1000 м верхняя 
[Sc|Ci ing]
-0.5 -3.4 81 -2  1009.4  1.9  745  301  -0.7       
03 17.04.18 250 (З) 5{10}  25000 м    10/4 600 м средняя, верхняя 
[Sc|Ac trans|Ci fib]
+1.1 -4.9 64 -2  1010.7  1.3  746  300           
12 17.04.18 280 (З) 5{13}  27000 м  {ливн. осадки}  8/8 600 м кучево-дожд. 
[Cb cap]
+0.6 -11.8 39 -2  1015.5  2.1  749  302    +3.8  0.0     
15 17.04.18 280 (З) 5{10}  20000 м    10/10 600 м кучево-дожд. 
[Cb cap]
-1.3 -11.7 45 -5  1017.7  2.1  751  305           
18 17.04.18 270 (З) 20000 м    3/0 верхняя 
[Ci fib]
-3.4 -11 56 -5  1019.1  1.2  752  308           
21 17.04.18 270 (З) 20000 м    4/0 верхняя 
[Ci fib]
-5.2 -10.3 67 -7  1020.4  1.2  753  310           
00 18.04.18 270 (З) 12000 м    3/0 верхняя 
[Ci fib]
-5.7 -9.7 73 -5  1021.6  1.1  753  311  -6.4         
03 18.04.18 310 (СЗ) 17000 м    1/1 1000 м 
[Sc]
-1.3 -10.2 51 -1  1022.7  1.4  754  306           
06 18.04.18 270 (З) 19000 м    10/10 600 м кучево-дожд. 
[Cb cap]
-1 -11.7 44 -2  1023.3  0.5  755  306           
09 18.04.18 270 (З) 24000 м    6/6 600 м 
[Sc]
+1.1 -12.2 36 1022.7  -0.4  755  304           
12 18.04.18 300 (СЗ) 20000 м    8/8 600 м 
[Sc]
+0.6 -12.7 36 1022.1  -0.6  754  304    +2       
15 18.04.18 220 (ЮЗ) 20000 м    9/9 600 м 
[Sc]
-1.3 -9.4 54 -1  1022.9  -0.6  755  306           
18 18.04.18 230 (ЮЗ) 20000 м    3/3 600 м 
[Sc]
-4.1 -8.4 72 -4  1023.2  0.1  755  310           
21 18.04.18 тихо ()   20000 м    ясно 
-5.8 -7.6 87 -6  1023  -0.3  754  311           
00 19.04.18 130 (ЮВ) 18000 м    8/3 600 м верхняя 
[Sc|Ci fib]
-4.5 -7.5 80 -4  1022.6  -0.3  754  310  -5.8         
03 19.04.18 150 (ЮВ) 22000 м    5/0 средняя, верхняя 
[Ac und|Ci fib]
+0.8 -8.4 50 -1  1021.8  -0.5  754  304           
06 19.04.18 160 (Ю) 24000 м    4/3 1000 м верхняя 
[Sc|Ci fib]
+4.2 -9.8 35 +3  1019.7  -1.8  752  300           
09 19.04.18 190 (Ю) 27000 м    5/5 1000 м 
[Sc]
+6 -11 28 +5  1017.8  -1.8  751  297           
12 19.04.18 290 (З) 23000 м    5/5 1000 м 
[Sc]
+6.3 -11.2 27 +6  1017  -0.8  751  297    +6.8       
15 19.04.18 тихо ()   20000 м    8/8 1000 м 
[Sc]
-0.1 -6.7 61 -0  1018  0.6  751  303           
18 19.04.18 180 (Ю) 20000 м    3/0 верхняя 
[Ci fib]
-1.3 -5.4 74 -1  1018  751  305           
21 19.04.18 210 (ЮЗ) 20000 м    ясно 
-1.9 -8.3 62 -3  1019.2  1.1  752  306           
00 20.04.18 200 (Ю) 14000 м    10/10 1000 м 
[Sc]
-1.6 -6.3 70 -3  1020.8  1.7  753  306  -2.6         
Время (UTC), дата Ветер
(°,м/с) 
Видим.   Явления Облачность Т
(°С)
Тd
(°С)
f(%) Тe
(°С)
Pmin
(гПа)
dP
(гПа)
Po
(мм)
O2
(г/м3)
Тmin Tmax R s Состояние
почвы

Для получения пояснительной информации подведите курсор к названию столбца.

ПОГОДА Огурцово - архив

Всё, что Вы хотите узнать о погоде Огурцово - удобно и подробно!

Выберите нужную дату (начиная с 1 января 2015* года) и нажмите кнопку "Найти".
Будут отображены архивные сводки погоды по пункту Огурцово, начиная с указанной даты.


Отображать данные в формате CSV (для использования в таблицах Excel)


Внимание! Наш архив погоды предназначен исключительно для личного некоммерческого использования в познавательных целях. Если Вам необходимы официальные справки о состоянии погоды (для производственных, юридических, коммерческих и т.п. целей), обращайтесь в органы Росгидромета.

*Примечание: данная дата относится к архиву по метеостанциям СССР (Россия, СНГ, Балтия).
Архив по метеостанциям Зарубежной Европы и Азии (кроме Китая) хранится 10 дней, по другим регионам земного шара (Китай, Африка, Америка, Австралия, Океания) - 1 день.

Огурцово - район местоположения метеостанции


Название, широта, долгота, высота метеостанции:
Огурцово 54.9°ш. 82.9°д. 133 м над ур. моря [Российская Федерация]

Дополнительная информация

В oтличие oт бoльшинства пoгoдных сайтoв мы публикуем пoдрoбную метеoинфoрмацию в детальнoм прoфессиoнальнoм фoрмате.

Характеристики температуры и влажнoсти вoздуха измеряются на высoте 2 м в тени вдали oт зданий и деревьев.
Скoрoсть ветра измеряется на высoте 10 м (на урoвне рoста челoвека скoрoсть ветра ниже в 1.5-2 раза). Если метеoстанция нахoдится в гoрoде или в лесу, тo скoрoсть ветра занижена на 2-4 м/с пo сравнению с oткрытым местoм. Скoрoсть ветра над акватoриями крупных рек и oзёр, а также на вершинах хoлмoв на 2-5 м/с выше, чем в oбычных услoвиях.
Атмoсфернoе давление в разных тoчках местнoсти мoжет значительнo oтличаться oт давления на метеoстанции, в зависимoсти oт услoвий рельефа (при пoдъёме на 10 м давление пoнижается примернo на 1 мм рт.ст.).